Startpagina
METAR-TAF:

METAR-TAF

Vliegvelden :

Aérodrome de Pontoise-Cormeilles-en-Vexin

Pontoise, Frankrijk

breedte: 49-05-48N, lengte: 002-02-27E, hoogte: 99 m

Actueel weer

Dit bericht is 29 minuten geleden gemaakt, om 23:00 UTC
Wind 1 kt uit het oostnoordoosten
Temperatuur -2°C
Vochtigheid 100%
Druk 1032 hPa
Zicht: 3000 m
nevel

METAR: LFPT 242300Z AUTO 07001KT 3000 BR NSC M02/M02 Q1032

Tijdstip: 00:29 (23:29 UTC)


TAF: ontbreekt

Waarnemingen en weersverwachtingen van meer dan 4000 vliegvelden (METAR en TAF).

De beschikbare stations zijn de gele en rode punten op de kaart.

Ga met uw muis naar het station om de naam te zien.

Klik dan om waarnemingen en weersverwachtingen te zien.

kaart wijzigen: klik op de groene knoppen met een zwart kruis om in te zoomen, op de groene knop met een streepje om uit te zoomen of op de groene pijlen voor aangrenzende kaarten.


METAR-TAF: